星链-30327 (STARLINK-30327 )

导读 | 星芒AI

STARLINK-30327 是 SpaceX Starlink 项目中的第 30327 颗卫星,属于其低轨卫星互联网星座的一部分。该卫星旨在为全球用户提供高速、低延迟的互联网服务,特别是在网络基础设施薄弱的地区。它运行在近地轨道,采用先进的通信技术,支持宽带连接。作为 Starlink 计划的扩展,该卫星有助于提升全球网络覆盖能力,并推动 SpaceX 在商业航天和通信领域的布局。

基本信息
目录编号:
57707
目录名称:
STARLINK-30327
国际标识:
2023-129K
轨道中心:
EARTH
卫星名称:
星链-30327
卫星全名:
星链-30327 (STARLINK-30327 )
卫星状态:
在轨 (已飞行845 天)
发射日期:
2023-08-27 UTC
国别 :
美国 (US)
星等 :
--
轨道信息
数据来源 国际轨道数据
星历时间: 2025-12-18T20:48:11+0800
13小时前
查看轨道信息
半长轴: 6890.547km
偏心率: 0.0018168
轨道倾角: 42.996°
近地点辐角 262.084°
升交点赤经 179.478°
平近点角 97.795°
近地点: 499.893km
远地点: 524.931km
周期: 94.872分钟
每日圈数: 15.178269
详细信息
固有亮度:
5
最大亮度:
0.3
卫星平台:
Starlink v2.0 mini
覆盖范围:
全球
运营商:
太空探索技术公司
运营商所在国:
美国
制造商(研发单位):
太空探索技术公司
制造商所在国:
美国
使用方式:
暂无
卫星简介
星链(Starlink)计划是由太空探索技术公司(SpaceX)提出的一个巨型低轨卫星互联网星座项目,计划在2019年至2024年间在太空搭建由约1.2万颗卫星组成的“星链”网络,其中1584颗将部署在地球上空550千米处的近地轨道,并从2020年开始工作。该卫星仍在工作。
2D轨道图
3D轨道图
轨道高度分析图
轨道倾角分析图
轨道综合分析图
查看轨道综合分析图